Location: Seattle
(47.6064°N, 122.3308°W)
Time: 00:31:23
(UTC-08:00)

Envisat - Pass Details

Date: 03 November 2020
Orbit: 764 x 766 km, 98.1° (Epoch: 03 December)

Event Time Altitude Azimuth Distance (km) Brightness Sun altitude
Rises 06:18:41 0° 13° (NNE) 3,244 6.2 -7.0°
Reaches altitude 10° 06:21:00 10° 13° (NNE) 2,313 5.5 -6.6°
Maximum altitude 06:26:07 89° 286° (WNW) 772 3.1 -5.8°
Drops below altitude 10° 06:31:11 10° 196° (SSW) 2,295 5.5 -5.0°
Sets 06:33:28 0° 196° (SSW) 3,216 6.3 -4.6°
